Torna al catalogo

COSMOS 2251 DEB

AttivoLEO
NORAD 34910·DEBRIS·🇷🇺 Russia

Lanciato Jun 16, 1993 da Plesetsk Cosmodrome

Loading…

Prossimi Passaggi (prossime 24 ore)

TLE

AggiornatoSource: Space-Track

Epoca: Sep 13, 2026, 08:22 UTC

1 34910U 93036ADF 26256.34922152  .00000186  00000-0  20576-3 0  9995
2 34910  73.8756  27.9014 0466058  99.7412 294.1613 13.38028262851970

Traccia COSMOS 2251 DEB in tempo reale con AllMySat

Download on the App Store